Regional Weather Roundup
Issued by NWS

Home | Current Version | Previous Version | Graphics & Text | Print | Product List | Glossary On
Versions: 1 2 3 4 5 6 7 8 9 10 11 12 13 14 15 16 17 18 19 20 21 22 23 24 25 26 27 28 29 30 31 32 33 34 35 36 37 38 39 40 41 42 43 44 45 46 47 48 49 50
000
ASUS43 KDMX 270707
RWRIA

WEATHER ROUNDUP FOR IOWA
NATIONAL WEATHER SERVICE DES MOINES IA
100 AM CST SAT DEC 27 2014

NOTE: "FAIR" INDICATES FEW OR NO CLOUDS BELOW 12,000 FEET WITH NO
SIGNIFICANT WEATHER AND/OR OBSTRUCTIONS TO VISIBILITY.

* - THESE STATIONS ARE NOT NWS STATIONS...THUS NOT UNDER NWS
QUALITY CONTROL.  THEY ALSO DO NOT REPORT WEATHER SUCH
AS PRECIPITATION OR FOG.

IAZ001>003-012>014-020>022-031>034-043>046-270800-
   NORTHWEST IOWA

CITY           SKY/WX    TMP DP  RH WIND       PRES   REMARKS
CARROLL *      LGT SNOW  30  30 100 NW9G15    29.97F WCI  22
CHEROKEE *     LGT SNOW  27  25  93 N8        30.03R WCI  18
DENISON *      LGT SNOW  28  28 100 NW9G16    29.99S WCI  20
LE MARS *      LGT SNOW  25  25 100 NW12      30.08R WCI  14
ORANGE CITY *  LGT SNOW  25  21  86 N9        30.04S VSB 1   WCI  15
SHELDON *      LGT SNOW  25  23  93 N13       30.03R WCI  13
SIOUX CITY     LGT SNOW  25  22  88 NW16      30.07F VSB 1   WCI  12
SPENCER        LGT SNOW  26  23  88 N13       30.00S FOG     WCI  15
STORM LAKE *   LGT SNOW  27  25  93 NW12      30.00S WCI  16
$$

IAZ055>058-069>071-079>083-090>094-270800-
   SOUTHWEST IOWA

CITY           SKY/WX    TMP DP  RH WIND       PRES   REMARKS
ATLANTIC *     LGT SNOW  32  32 100 NW9       29.98F WCI  24
AUDUBON *      LGT SNOW  30  27  86 NW3       29.98S VSB 1
CLARINDA *     CLOUDY    34  34 100 W7        30.02S FOG     WCI  28
COUNCIL BLFS * CLOUDY    28  28 100 NW15      30.01R WCI  17
CRESTON *      MIX PCPN  32  32 100 W6        29.96F VSB 1/4 WCI  26
HARLAN  *      MOCLDY    30  32 100 NW12      30.03S WCI  21
LAMONI         LGT RAIN  34  33  96 W8        29.95S FOG     WCI  27
RED OAK *      LGT SNOW  32  32 100 NW9       30.01S WCI  24
SHENANDOAH *   CLOUDY    32  32 100 W7        30.03R FOG     WCI  26
$$

IAZ047>049-059>061-072>074-084-270800-
   CENTRAL IOWA

CITY           SKY/WX    TMP DP  RH WIND       PRES   REMARKS
AMES           LGT SNOW  33  32  96 CALM      29.93F VSB 3/4
ANKENY *       CLOUDY    34  34 100 W5        29.95F FOG     WCI  30
CHARITON *     MIX PCPN  34  34 100 W3        29.94F
DES MOINES     CLOUDY    35  32  88 W6        29.95F FOG     WCI  30
GRINNELL*      LGT RAIN  34  34 100 CALM      29.93F
KNOXVILLE *    CLOUDY    34  34 100 CALM      29.91F FOG
MARSHALLTOWN   CLOUDY    34  33  96 CALM      29.91F FOG
PELLA *        CLOUDY    36  34  93 CALM      29.94F FOG
PERRY *        LGT SNOW  32  32 100 NW3       29.95F
$$

IAZ004>006-015-016-023>025-035-036-270800-
   NORTH CENTRAL IOWA

CITY           SKY/WX    TMP DP  RH WIND       PRES   REMARKS
ALGONA *       LGT SNOW  30  30 100 N14       29.97F WCI  20
CLARION *      LGT SNOW  30  30 100 N7        29.94F WCI  23
ESTHERVILLE    LGT SNOW  25  23  92 N17       29.98F FOG     WCI  12
FORT DODGE *   CLOUDY    30  27  86 N6        29.96F WCI  24
MASON CITY     LGT SNOW  30  28  92 N8        29.94F FOG     WCI  22
FOREST CITY *  FLURRIES  32  28  86 N7        29.93F WCI  26
IOWA FALLS *   CLOUDY    32  32 100 N3        29.93F FOG
$$

IAZ007>011-017>019-026>030-037>042-050>054-066-270800-
   NORTHEAST IOWA

CITY           SKY/WX    TMP DP  RH WIND       PRES   REMARKS
CEDAR RAPIDS   LGT RAIN  38  37  97 SE5       29.91F WCI  34
CHARLES CITY * CLOUDY    34  34 100 NE6       29.92F FOG     WCI  29
CLINTON *      CLOUDY    43  39  87 SE6       29.96F
DECORAH *      CLOUDY    34  34 100 CALM      29.92F FOG
DUBUQUE        CLOUDY    40  38  93 CALM      29.93F
MONTICELLO *   CLOUDY    37  37 100 CALM      29.93F FOG
OELWEIN *      LGT RAIN  34  34 100 E5        29.92F WCI  30
WATERLOO       CLOUDY    34  34 100 CALM      29.93F FOG
$$

IAZ064-065-067-068-078-270800-
   EAST CENTRAL IOWA

CITY           SKY/WX    TMP DP  RH WIND       PRES   REMARKS
DAVENPORT      CLOUDY    44  40  85 SE7       29.93F
IOWA CITY      CLOUDY    41  40  96 CALM      29.94F
MT. PLEASANT * DRIZZLE   43  39  87 CALM      29.94S
MUSCATINE *    CLOUDY    45  39  81 CALM      29.94S
QUAD CITIES    CLOUDY    48  43  82 S9        29.93S
$$

IAZ062-063-075>077-085>089-095>099-270800-
   SOUTHEAST IOWA

CITY           SKY/WX    TMP DP  RH WIND       PRES   REMARKS
BURLINGTON     CLOUDY    51  46  83 S13       29.94S
FAIRFIELD *    CLOUDY    39  37  93 CALM      29.94F
FORT MADISON *   N/A     52  48  87 S10       29.95S
KEOKUK *       CLOUDY    52  48  87 S9        29.93F
OSKALOOSA *    CLOUDY    36  34  93 CALM      29.94F
CENTERVILLE *  CLOUDY    37  37 100 CALM      29.95F
OTTUMWA        CLOUDY    37  35  92 W3        29.94F
WASHINGTON *   MOCLDY    41  41 100 CALM      29.93F
$$

ABBREVIATIONS USED IN REMARKS
   TC - TEMPERATURES IN CELSIUS
  WCI - WIND CHILL INDEX
   HX - HEAT INDEX
  VSB - VISIBILITY
$$




USA.gov is the U.S. government's official web portal to all federal, state and local government web resources and services.